False Pass, AK

3:28 AM HDT on October 17, 2017 (GMT -0900)
False Pass

Weather History for PAKF - December, 2012

Change the Weather History Date:

Tuesday, December 25, 2012

  Actual Average (PACD) Record (PACD)
Temperature  
Mean Temperature 34 °F 30 °F  
Max Temperature 34 °F 35 °F 45 °F (1971)
Min Temperature 32 °F 26 °F 5 °F (2006)
Degree Days  
Heating Degree Days 30 35  
Month to date heating degree days 839  
Since 1 July heating degree days 3859  
Cooling Degree Days 0 0  
Month to date cooling degree days 0  
Year to date cooling degree days 0  
Moisture  
Dew Point 33 °F    
Average Humidity 90    
Maximum Humidity 100    
Minimum Humidity 82    
Precipitation  
Precipitation 0.05 in 0.12 in 1.08 in (1946)
Month to date precipitation 3.72  
Year to date precipitation 40.93  
Snow  
Snow 0.00 in 0.40 in 3.40 in (1970)
Month to date snowfall 9.9  
Since 1 July snowfall 22.5  
Snow Depth -    
Sea Level Pressure  
Sea Level Pressure 29.27 in    
Wind  
Wind Speed 12 mph (East)    
Max Wind Speed 24 mph    
Max Gust Speed 34 mph    
Visibility 8 miles    
Events Rain , Snow    
T = Trace of Precipitation, MM = Missing Value Source: NWS Daily Summary

Daily Weather History Graph

Daily Weather History Graph

Search for Another Location

Airport or City:

Trip Planner

Search our weather history database for the weather conditions in past years. The results will help you decide how hot, cold, wet, or windy it might be!

Date:

Astronomy

Dec. 25, 2012 Rise Set
Actual Time 9:17 AM HST 4:30 PM HST
Civil Twilight 8:32 AM HST 5:16 PM HST
Nautical Twilight 7:44 AM HST 6:03 PM HST
Astronomical Twilight 7:00 AM HST 6:47 PM HST
Moon 2:54 PM HST (12/25) 6:53 AM HST (12/25)
Length of Visible Light 8h 43m
Length of Day
7h 13m
Waxing Gibbous, 94% of the Moon is Illuminated
Dec 25
Waxing Gibbous
Dec 28
Full
Jan 4
Last Quarter
Jan 11
New
Jan 18
First Quarter

Hourly Weather History & Observations

Time (HST) Temp. Windchill Dew Point Humidity Pressure Visibility Wind Dir Wind Speed Gust Speed Precip Events Conditions
12:01 AM 32.0 °F 24.8 °F 28.4 °F 87% 29.27 in 2.5 mi East 8.1 mph - 0.00 in Snow Light Snow
12:12 AM 32.0 °F 27.5 °F 28.4 °F 87% 29.27 in 2.5 mi Variable 4.6 mph - 0.00 in Snow Light Snow
12:19 AM 32.0 °F 22.5 °F 28.4 °F 87% 29.27 in 2.5 mi East 12.7 mph 18.4 mph 0.00 in Snow Light Snow
12:27 AM 32.0 °F 25.6 °F 28.4 °F 87% 29.27 in 2.5 mi East 6.9 mph 18.4 mph 0.00 in Snow Light Snow
12:42 AM 32.0 °F 23.6 °F 30.0 °F 92% 29.55 in 2.5 mi East 10.4 mph 17.3 mph 0.00 in Snow Light Snow
12:58 AM 33.8 °F 24.3 °F 30.2 °F 87% 29.27 in 8.0 mi ENE 13.8 mph - 0.00 in Snow Light Snow
1:01 AM 33.8 °F 24.3 °F 30.2 °F 87% 29.27 in 8.0 mi NE 13.8 mph 18.4 mph 0.00 in Snow Light Snow
2:01 AM 33.1 °F 25.5 °F 30.0 °F 89% 29.55 in 7.0 mi ENE 9.2 mph - 0.00 in Rain Light Rain
3:01 AM 32.0 °F 22.1 °F 30.0 °F 92% 29.55 in 10.0 mi East 13.8 mph - 0.00 in   Overcast
4:01 AM 33.1 °F 24.9 °F 30.0 °F 89% 29.55 in 10.0 mi ENE 10.4 mph 17.3 mph 0.00 in   Overcast
5:01 AM 34.0 °F 28.0 °F 30.0 °F 85% 29.55 in 9.0 mi Variable 6.9 mph - 0.00 in Rain Light Rain
6:01 AM 34.0 °F 24.6 °F 30.9 °F 89% 29.55 in 8.0 mi ENE 13.8 mph 24.2 mph 0.00 in Rain Light Rain
7:01 AM 34.0 °F 22.4 °F 32.0 °F 92% 29.54 in 8.0 mi ENE 20.7 mph 31.1 mph 0.01 in   Overcast
8:01 AM 34.0 °F 24.2 °F 32.0 °F 92% 29.53 in 9.0 mi ENE 15.0 mph 25.3 mph 0.00 in Rain Light Rain
9:01 AM 34.0 °F 23.0 °F 32.0 °F 92% 29.53 in 4.0 mi ENE 18.4 mph 34.5 mph 0.01 in Snow Light Snow
9:30 AM 33.8 °F 21.3 °F 33.8 °F 100% 29.24 in 3.0 mi ENE 24.2 mph 29.9 mph 0.01 in Snow Light Snow
9:40 AM 35.6 °F 24.0 °F 33.8 °F 93% 29.25 in 2.5 mi ENE 23.0 mph 32.2 mph 0.02 in Snow Light Snow
9:49 AM 35.6 °F 24.0 °F 33.8 °F 93% 29.24 in 3.0 mi ENE 23.0 mph 28.8 mph 0.02 in Snow Light Snow
10:01 AM 35.6 °F 25.2 °F 33.8 °F 93% 29.24 in 9.0 mi East 18.4 mph 27.6 mph 0.03 in Rain Light Rain
10:08 AM 35.6 °F 24.5 °F 33.8 °F 93% 29.25 in 10.0 mi East 20.7 mph 28.8 mph 0.03 in Rain Light Rain
10:15 AM 35.6 °F 25.5 °F 33.8 °F 93% 29.25 in 10.0 mi East 17.3 mph 28.8 mph 0.03 in   Overcast
11:01 AM 35.6 °F 27.1 °F 33.8 °F 93% 29.24 in 9.0 mi East 12.7 mph 21.9 mph 0.03 in Rain Light Rain
11:14 AM 35.6 °F 27.1 °F 33.8 °F 93% 29.23 in 8.0 mi East 12.7 mph 20.7 mph 0.03 in Rain Light Rain
11:30 AM 35.6 °F 28.6 °F 33.8 °F 93% 29.22 in 10.0 mi ESE 9.2 mph - 0.03 in   Overcast
11:59 AM 37.4 °F 29.8 °F 35.6 °F 93% 29.21 in 10.0 mi ESE 11.5 mph - 0.03 in   Overcast
12:01 PM 37.4 °F 30.3 °F 35.6 °F 93% 29.49 in 10.0 mi East 10.4 mph - 0.00 in   Overcast
12:10 PM 35.6 °F 28.0 °F 35.6 °F 100% 29.21 in 10.0 mi ESE 10.4 mph - N/A   Overcast
12:30 PM 35.6 °F 27.1 °F 33.8 °F 93% 29.21 in 10.0 mi ESE 12.7 mph 17.3 mph N/A   Overcast
12:56 PM 35.6 °F 27.5 °F 33.8 °F 93% 29.21 in 10.0 mi East 11.5 mph 17.3 mph 0.00 in   Overcast
1:01 PM 37.0 °F 28.9 °F 35.1 °F 93% 29.48 in 10.0 mi ESE 12.7 mph 19.6 mph 0.00 in   Overcast
1:15 PM 37.4 °F 28.9 °F 35.6 °F 93% 29.20 in 10.0 mi East 13.8 mph 18.4 mph 0.00 in Rain Light Rain
1:24 PM 37.4 °F 28.5 °F 35.6 °F 93% 29.20 in 10.0 mi ENE 15.0 mph 19.6 mph 0.00 in   Overcast
1:44 PM 35.6 °F 25.5 °F 33.8 °F 93% 29.19 in 5.0 mi ENE 17.3 mph 23.0 mph 0.00 in Rain Light Rain
1:52 PM 35.6 °F 26.6 °F 33.8 °F 93% 29.19 in 6.0 mi East 13.8 mph 23.0 mph 0.01 in Rain Light Rain
2:01 PM 37.0 °F 27.4 °F 35.1 °F 93% 29.46 in 10.0 mi East 17.3 mph - 0.01 in   Overcast
2:12 PM 37.4 °F 27.8 °F 35.6 °F 93% 29.18 in 10.0 mi ENE 17.3 mph 21.9 mph N/A   Overcast
2:37 PM 37.4 °F 26.9 °F 35.6 °F 93% 29.17 in 10.0 mi ENE 20.7 mph 27.6 mph N/A   Overcast
3:01 PM 37.0 °F 28.9 °F 34.0 °F 89% 29.44 in 10.0 mi ENE 12.7 mph - N/A   Overcast
3:10 PM 37.4 °F 27.8 °F 33.8 °F 87% 29.16 in 10.0 mi East 17.3 mph 21.9 mph N/A   Overcast
3:19 PM 37.4 °F 28.2 °F 33.8 °F 87% 29.15 in 10.0 mi ENE 16.1 mph 21.9 mph N/A   Overcast
4:01 PM 37.0 °F 27.0 °F 34.0 °F 89% 29.42 in 10.0 mi ENE 18.4 mph 24.2 mph N/A   Overcast
5:01 PM 36.0 °F 28.0 °F 33.1 °F 89% 29.39 in 10.0 mi ENE 11.5 mph 17.3 mph N/A   Overcast
5:34 PM 37.4 °F 29.8 °F 33.8 °F 87% 29.10 in 10.0 mi East 11.5 mph - N/A   Overcast
6:01 PM 37.0 °F 33.3 °F 33.1 °F 86% 29.37 in 10.0 mi ENE 4.6 mph 18.4 mph N/A   Overcast
7:01 PM 37.0 °F 28.5 °F 32.0 °F 82% 29.33 in 10.0 mi East 13.8 mph 17.3 mph N/A   Overcast
8:01 PM 37.0 °F 29.3 °F 32.0 °F 82% 29.29 in 10.0 mi ENE 11.5 mph 16.1 mph 0.00 in   Overcast
9:01 PM 36.0 °F 32.1 °F 30.9 °F 82% 29.24 in 10.0 mi Variable 4.6 mph 26.5 mph 0.00 in Rain Light Rain
10:01 PM 36.0 °F 32.1 °F 30.9 °F 82% 29.19 in 10.0 mi NW 4.6 mph - 0.02 in Snow Light Snow
11:01 PM 33.8 °F 29.6 °F 32.0 °F 93% 28.85 in 8.0 mi South 4.6 mph - 0.04 in Snow Light Snow
11:12 PM 33.8 °F 28.6 °F 32.0 °F 93% 28.84 in 4.0 mi SW 5.8 mph - 0.05 in Snow Light Snow
11:32 PM 33.8 °F 30.8 °F 32.0 °F 93% 28.83 in 3.0 mi NNW 3.5 mph - 0.06 in Snow Light Snow
11:39 PM 33.8 °F - 32.0 °F 93% 28.82 in 2.0 mi Calm Calm - 0.06 in Snow Light Snow
11:54 PM 33.8 °F 30.8 °F 30.2 °F 87% 28.80 in 3.0 mi South 3.5 mph - 0.06 in Snow Light Snow